Regional Weather Roundup
Issued by NWS

Home | Current Version | Previous Version | Text Only | Print | Product List | Glossary On
Versions: 1 2 3 4 5 6 7 8 9 10 11 12 13 14 15 16 17 18 19 20 21 22 23 24 25 26 27 28 29 30 31 32 33 34 35 36 37 38 39 40 41 42 43 44 45 46 47 48 49 50
000
ASUS45 KABQ 241810
RWRNM
WEATHER ROUNDUP FOR NEW MEXICO
NATIONAL WEATHER SERVICE ALBUQUERQUE NM
1200 PM MDT THU JUL 24 2014

NOTE: "FAIR" MEANS FEW OR NO CLOUDS BELOW 12,000 FEET AGL WITH NO
       SIGNIFICANT WEATHER OR OBSTRUCTIONS TO VISION.

      THIS PRODUCT IS RELEASED AS TWO VERSIONS.  ONE VERSION NEAR
      THE TOP OF THE HOUR CONTAINING PRELIMINARY DATA FROM ALBUQUERQUE
      AND OTHER STATIONS.  A FINAL VERSION WITH ADDITIONAL DATA IS
      ISSUED ABOUT 10 MINUTES AFTER THE HOUR.

NMZ501-503-504-510>518-241900-
NORTHWEST PLATEAU/NORTHCENTRAL MOUNTAINS

CITY           SKY/WX    TMP DP  RH WIND       PRES   REMARKS
FARMINGTON     MOSUNNY   88  48  25 VRB6G17   30.26F
6HR MIN TEMP:  68; 6HR MAX TEMP:  88;

LOS ALAMOS     SUNNY     78  47  34 S13       30.42F
SANTA FE       SUNNY     81  49  32 SW10      30.36F
6HR MIN TEMP:  59; 6HR MAX TEMP:  81;

TAOS           SUNNY     79  46  31 W12       30.41F
ANGEL FIRE     FAIR      72  47  40 W14G21    30.50F

$$
NMZ402-403-502-505>509-241900-
WESTCENTRAL MOUNTAINS/SOUTHWEST MOUNTAINS

CITY           SKY/WX    TMP DP  RH WIND       PRES   REMARKS
GALLUP         SUNNY     85  43  22 S10G16    30.35F
6HR MIN TEMP:  56; 6HR MAX TEMP:  85;

GRANTS         SUNNY     85  41  21 SE8       30.38S
SILVER CITY    SUNNY     86  46  25 SE23G31   30.31F

$$
NMZ407-409-411-412-241900-
SOUTHERN DESERTS

CITY           SKY/WX    TMP DP  RH WIND       PRES   REMARKS
LORDSBURG      FAIR      90  46  22 E20G26    30.19F
DEMING         SUNNY     90  48  23 SE16      30.20F
6HR MIN TEMP:  68; 6HR MAX TEMP:  90;

LAS CRUCES     SUNNY     90  48  24 E6G17     30.24F
HOLLOMAN AFB   MOSUNNY   90  51  26 S3        30.19F
ALAMOGORDO     MOSUNNY   90  50  25 SW9G16    30.21F
T OR C         SUNNY     87  49  26 S12       30.26F
6HR MIN TEMP:  67; 6HR MAX TEMP:  87; 6HR PCP: TRACE;


$$
NMZ519>523-241900-
CENTRAL VALLEYS/CENTRAL HIGHLANDS

CITY           SKY/WX    TMP DP  RH WIND       PRES   REMARKS
ALBUQUERQUE    MOSUNNY   85  47  26 VRB5      30.30F
6HR MIN TEMP:  69; 6HR MAX TEMP:  85;

DOUBLE EAGLE   MOSUNNY   84  50  30 SE10      30.34F
MORIARTY ARPT  FAIR      84  44  24 CALM      30.36F
6HR MIN TEMP:  51; 6HR MAX TEMP:  84;

CLINES CORNERS SUNNY     81  44  27 SW15      30.41F
6HR MIN TEMP:  57; 6HR MAX TEMP:  81;

BELEN          FAIR      87  46  24 SW10      30.29F
6HR MIN TEMP:  63; 6HR MAX TEMP:  87;

SOCORRO        FAIR      90  45  21 S10G20    30.26F
6HR MIN TEMP:  64; 6HR MAX TEMP:  90;


$$
NMZ524>526-539-540-241900-
SOUTHCENTRAL MOUNTAINS

CITY           SKY/WX    TMP DP  RH WIND       PRES   REMARKS
RUIDOSO        LGT RAIN  79  45  29 MISG      30.43F

$$
NMZ527>531-241900-
NORTHEAST HIGHLANDS/NORTHEAST PLAINS

CITY           SKY/WX    TMP DP  RH WIND       PRES   REMARKS
LAS VEGAS      SUNNY     83  45  26 SW22      30.37F
6HR MIN TEMP:  58; 6HR MAX TEMP:  83;

RATON          NOT AVBL
CLAYTON        SUNNY     92  45  19 SW21G29   30.21F
6HR MIN TEMP:  68; 6HR MAX TEMP:  92;


$$
NMZ532>537-241900-
EASTCENTRAL PLAINS

CITY           SKY/WX    TMP DP  RH WIND       PRES   REMARKS
TUCUMCARI      SUNNY     94  53  25 SW14G21   30.17F
6HR MIN TEMP:  71; 6HR MAX TEMP:  95;

CANNON AFB     SUNNY     87  58  37 SW10      30.23F
6HR MIN TEMP:  67; 6HR MAX TEMP:  88;

CLOVIS AIRPORT SUNNY     90  57  33 W12       30.25

$$
NMZ028-029-538-241900-
SOUTHEAST PLAINS

CITY           SKY/WX    TMP DP  RH WIND       PRES   REMARKS
ROSWELL        SUNNY     93  53  25 S12       30.18F
6HR MIN TEMP:  68; 6HR MAX TEMP:  93;

ARTESIA        SUNNY     90  55  31 SE6       30.18F
CARLSBAD       SUNNY     92  53  26 MISG      30.15F
6HR MIN TEMP:  73; 6HR MAX TEMP:  94;

HOBBS          SUNNY     91  52  25 E7        30.20F


$$


USA.gov is the U.S. government's official web portal to all federal, state and local government web resources and services.